Time,TemperatureF,DewpointF,PressureIn,WindDirection,WindDirectionDegrees,WindSpeedMPH,WindSpeedGustMPH,Humidity,HourlyPrecipIn,Conditions,Clouds,dailyrainin,SoftwareType,DateUTC
2013-07-22 00:11:00,68.0,68.0,30.17,SW,224,0.0,1.0,98,0.00,,,0.00,weatherlink.com 1.10,2013-07-22 04:11:00,
2013-07-22 00:26:00,67.9,67.0,30.17,SW,224,0.0,0.0,98,0.00,,,0.00,weatherlink.com 1.10,2013-07-22 04:26:00,
2013-07-22 00:41:00,67.6,67.0,30.16,SW,224,0.0,0.0,98,0.00,,,0.00,weatherlink.com 1.10,2013-07-22 04:41:00,
2013-07-22 00:56:00,67.6,67.0,30.16,SW,224,0.0,0.0,98,0.00,,,0.00,weatherlink.com 1.10,2013-07-22 04:56:00,
2013-07-22 01:11:00,67.5,67.0,30.15,WSW,240,0.0,1.0,99,0.00,,,0.00,weatherlink.com 1.10,2013-07-22 05:11:00,
2013-07-22 01:27:00,67.6,67.0,30.14,WSW,239,0.0,0.0,99,0.00,,,0.00,weatherlink.com 1.10,2013-07-22 05:27:00,
2013-07-22 01:42:00,67.7,67.0,30.14,WSW,246,0.0,0.0,99,0.00,,,0.00,weatherlink.com 1.10,2013-07-22 05:42:00,
2013-07-22 01:57:00,67.6,67.0,30.13,West,273,0.0,1.0,98,0.00,,,0.00,weatherlink.com 1.10,2013-07-22 05:57:00,
2013-07-22 02:12:00,67.7,67.0,30.12,WSW,247,0.0,1.0,98,0.00,,,0.00,weatherlink.com 1.10,2013-07-22 06:12:00,
2013-07-22 02:27:00,67.6,67.0,30.11,WSW,248,0.0,1.0,98,0.00,,,0.00,weatherlink.com 1.10,2013-07-22 06:27:00,
2013-07-22 02:42:00,67.5,67.0,30.10,WSW,248,0.0,0.0,98,0.00,,,0.00,weatherlink.com 1.10,2013-07-22 06:42:00,
2013-07-22 02:57:00,67.4,67.0,30.10,WSW,248,0.0,0.0,98,0.00,,,0.00,weatherlink.com 1.10,2013-07-22 06:57:00,
2013-07-22 03:12:00,67.3,67.0,30.10,WSW,249,0.0,0.0,98,0.00,,,0.00,weatherlink.com 1.10,2013-07-22 07:12:00,
2013-07-22 03:27:00,67.2,67.0,30.09,WSW,248,0.0,0.0,98,0.00,,,0.00,weatherlink.com 1.10,2013-07-22 07:27:00,
2013-07-22 03:42:00,67.0,67.0,30.09,WSW,249,0.0,0.0,98,0.00,,,0.00,weatherlink.com 1.10,2013-07-22 07:42:00,
2013-07-22 03:57:00,67.0,67.0,30.09,WSW,248,0.0,0.0,98,0.00,,,0.00,weatherlink.com 1.10,2013-07-22 07:57:00,
2013-07-22 04:12:00,66.7,66.0,30.09,WSW,248,0.0,0.0,98,0.00,,,0.00,weatherlink.com 1.10,2013-07-22 08:12:00,
2013-07-22 04:27:00,66.4,66.0,30.09,SW,233,0.0,1.0,98,0.00,,,0.00,weatherlink.com 1.10,2013-07-22 08:27:00,
2013-07-22 04:42:00,66.3,66.0,30.09,SW,235,0.0,0.0,98,0.00,,,0.00,weatherlink.com 1.10,2013-07-22 08:42:00,
2013-07-22 04:57:00,66.2,66.0,30.09,WSW,243,0.0,1.0,98,0.00,,,0.00,weatherlink.com 1.10,2013-07-22 08:57:00,
2013-07-22 05:12:00,65.9,65.0,30.09,WSW,242,0.0,0.0,98,0.00,,,0.00,weatherlink.com 1.10,2013-07-22 09:12:00,
2013-07-22 05:27:00,65.7,65.0,30.09,WSW,246,0.0,1.0,98,0.00,,,0.00,weatherlink.com 1.10,2013-07-22 09:27:00,
2013-07-22 05:42:00,65.7,65.0,30.10,WSW,246,0.0,0.0,98,0.00,,,0.00,weatherlink.com 1.10,2013-07-22 09:42:00,
2013-07-22 05:57:00,65.7,65.0,30.10,WSW,246,0.0,0.0,98,0.00,,,0.00,weatherlink.com 1.10,2013-07-22 09:57:00,
2013-07-22 06:12:00,65.6,65.0,30.10,WSW,247,0.0,0.0,98,0.00,,,0.00,weatherlink.com 1.10,2013-07-22 10:12:00,
2013-07-22 06:27:00,65.5,65.0,30.10,WSW,247,0.0,0.0,98,0.00,,,0.00,weatherlink.com 1.10,2013-07-22 10:27:00,
2013-07-22 06:42:00,65.5,65.0,30.11,WSW,246,0.0,1.0,98,0.00,,,0.00,weatherlink.com 1.10,2013-07-22 10:42:00,
2013-07-22 06:57:00,65.5,65.0,30.12,West,271,0.0,1.0,98,0.00,,,0.00,weatherlink.com 1.10,2013-07-22 10:57:00,
2013-07-22 07:12:00,65.5,65.0,30.12,SW,221,0.0,0.0,98,0.00,,,0.00,weatherlink.com 1.10,2013-07-22 11:12:00,
2013-07-22 07:27:00,65.7,65.0,30.12,SW,222,0.0,0.0,99,0.00,,,0.00,weatherlink.com 1.10,2013-07-22 11:27:00,
2013-07-22 07:42:00,65.7,65.0,30.12,WNW,296,0.0,1.0,98,0.00,,,0.00,weatherlink.com 1.10,2013-07-22 11:42:00,
2013-07-22 07:57:00,66.1,66.0,30.12,NW,304,0.0,0.0,98,0.00,,,0.00,weatherlink.com 1.10,2013-07-22 11:57:00,
2013-07-22 08:12:00,66.3,66.0,30.13,WNW,301,0.0,1.0,98,0.00,,,0.00,weatherlink.com 1.10,2013-07-22 12:12:00,
2013-07-22 08:27:00,66.4,66.0,30.13,SE,136,0.0,1.0,98,0.00,,,0.00,weatherlink.com 1.10,2013-07-22 12:27:00,
2013-07-22 08:42:00,66.6,66.0,30.14,SE,128,0.0,1.0,97,0.00,,,0.00,weatherlink.com 1.10,2013-07-22 12:42:00,
2013-07-22 08:57:00,67.3,66.0,30.14,WNW,284,0.0,0.0,96,0.00,,,0.00,weatherlink.com 1.10,2013-07-22 12:57:00,
2013-07-22 09:12:00,68.0,67.0,30.15,West,259,0.0,1.0,95,0.00,,,0.00,weatherlink.com 1.10,2013-07-22 13:12:00,
2013-07-22 09:27:00,68.5,67.0,30.15,WSW,248,0.0,0.0,95,0.00,,,0.00,weatherlink.com 1.10,2013-07-22 13:27:00,
2013-07-22 09:42:00,69.0,67.0,30.15,WSW,245,0.0,1.0,94,0.00,,,0.00,weatherlink.com 1.10,2013-07-22 13:42:00,
2013-07-22 09:57:00,70.0,69.0,30.14,West,259,0.0,0.0,95,0.00,,,0.00,weatherlink.com 1.10,2013-07-22 13:57:00,
2013-07-22 10:12:00,70.9,68.0,30.14,SW,235,0.0,1.0,91,0.00,,,0.00,weatherlink.com 1.10,2013-07-22 14:12:00,
2013-07-22 10:27:00,71.8,68.0,30.14,West,269,0.0,1.0,88,0.00,,,0.00,weatherlink.com 1.10,2013-07-22 14:27:00,
2013-07-22 10:42:00,74.6,72.0,30.13,WSW,241,1.0,2.0,90,0.00,,,0.00,weatherlink.com 1.10,2013-07-22 14:42:00,
2013-07-22 10:57:00,76.9,72.0,30.13,ENE,63,0.0,2.0,85,0.00,,,0.00,weatherlink.com 1.10,2013-07-22 14:57:00,
2013-07-22 11:13:00,78.2,70.0,30.13,ESE,116,3.0,3.0,77,0.00,,,0.00,weatherlink.com 1.10,2013-07-22 15:13:00,
2013-07-22 11:28:00,80.2,72.0,30.13,WSW,257,1.0,3.0,76,0.00,,,0.00,weatherlink.com 1.10,2013-07-22 15:28:00,
2013-07-22 11:43:00,81.0,71.0,30.12,East,98,5.0,5.0,71,0.00,,,0.00,weatherlink.com 1.10,2013-07-22 15:43:00,
2013-07-22 11:58:00,81.9,71.0,30.12,WNW,294,1.0,2.0,70,0.00,,,0.00,weatherlink.com 1.10,2013-07-22 15:58:00,
2013-07-22 12:13:00,82.6,70.0,30.12,WNW,287,0.0,4.0,66,0.00,,,0.00,weatherlink.com 1.10,2013-07-22 16:13:00,
2013-07-22 12:28:00,83.0,69.0,30.12,West,265,0.0,4.0,62,0.00,,,0.00,weatherlink.com 1.10,2013-07-22 16:28:00,
2013-07-22 12:43:00,82.6,68.0,30.11,WNW,302,2.0,5.0,61,0.00,,,0.00,weatherlink.com 1.10,2013-07-22 16:43:00,
2013-07-22 12:58:00,79.7,72.0,30.11,WNW,301,0.0,6.0,76,0.00,,,0.00,weatherlink.com 1.10,2013-07-22 16:58:00,
2013-07-22 13:13:00,80.5,70.0,30.10,North,355,3.0,8.0,71,0.00,,,0.00,weatherlink.com 1.10,2013-07-22 17:13:00,
2013-07-22 13:28:00,80.3,72.0,30.10,NW,305,1.0,4.0,76,0.00,,,0.00,weatherlink.com 1.10,2013-07-22 17:28:00,
2013-07-22 13:43:00,81.7,72.0,30.09,NW,305,2.0,5.0,73,0.00,,,0.00,weatherlink.com 1.10,2013-07-22 17:43:00,
2013-07-22 13:58:00,80.4,71.0,30.09,East,85,0.0,4.0,73,0.00,,,0.00,weatherlink.com 1.10,2013-07-22 17:58:00,
2013-07-22 14:13:00,80.3,73.0,30.08,WNW,285,2.0,2.0,77,0.00,,,0.00,weatherlink.com 1.10,2013-07-22 18:13:00,
2013-07-22 14:28:00,82.6,72.0,30.07,NW,305,1.0,4.0,70,0.00,,,0.00,weatherlink.com 1.10,2013-07-22 18:28:00,
2013-07-22 14:43:00,83.0,71.0,30.07,NNW,338,3.0,7.0,68,0.00,,,0.00,weatherlink.com 1.10,2013-07-22 18:43:00,
2013-07-22 14:58:00,82.5,70.0,30.07,NW,313,0.0,5.0,67,0.00,,,0.00,weatherlink.com 1.10,2013-07-22 18:58:00,
2013-07-22 15:28:00,82.0,73.0,30.05,SSW,212,0.0,8.0,73,0.00,,,0.00,weatherlink.com 1.10,2013-07-22 19:28:00,
2013-07-22 15:43:00,82.4,72.0,30.05,West,266,2.0,7.0,71,0.00,,,0.00,weatherlink.com 1.10,2013-07-22 19:43:00,
2013-07-22 15:58:00,80.1,72.0,30.05,West,280,1.0,7.0,75,0.00,,,0.00,weatherlink.com 1.10,2013-07-22 19:58:00,
2013-07-22 16:13:00,77.3,72.0,30.05,West,271,3.0,6.0,84,0.02,,,0.02,weatherlink.com 1.10,2013-07-22 20:13:00,
2013-07-22 16:28:00,76.3,73.0,30.04,WNW,290,0.0,1.0,90,0.04,,,0.04,weatherlink.com 1.10,2013-07-22 20:28:00,
2013-07-22 16:43:00,76.4,73.0,30.04,SW,229,0.0,2.0,89,0.04,,,0.04,weatherlink.com 1.10,2013-07-22 20:43:00,
2013-07-22 16:58:00,76.6,73.0,30.04,WSW,251,2.0,3.0,88,0.04,,,0.04,weatherlink.com 1.10,2013-07-22 20:58:00,
2013-07-22 17:13:00,78.5,73.0,30.03,SW,236,0.0,4.0,83,0.01,,,0.04,weatherlink.com 1.10,2013-07-22 21:13:00,
2013-07-22 17:28:00,78.8,72.0,30.02,West,260,1.0,4.0,79,0.00,,,0.04,weatherlink.com 1.10,2013-07-22 21:28:00,
2013-07-22 17:43:00,79.3,72.0,30.02,WNW,285,0.0,4.0,77,0.00,,,0.04,weatherlink.com 1.10,2013-07-22 21:43:00,
2013-07-22 17:58:00,78.4,70.0,30.02,West,266,2.0,5.0,76,0.00,,,0.04,weatherlink.com 1.10,2013-07-22 21:58:00,
2013-07-22 18:13:00,78.7,70.0,30.02,WSW,257,2.0,7.0,75,0.00,,,0.04,weatherlink.com 1.10,2013-07-22 22:13:00,
2013-07-22 18:28:00,77.6,71.0,30.02,WSW,249,0.0,8.0,79,0.00,,,0.04,weatherlink.com 1.10,2013-07-22 22:28:00,
2013-07-22 18:43:00,77.8,71.0,30.02,WNW,283,0.0,4.0,79,0.00,,,0.04,weatherlink.com 1.10,2013-07-22 22:43:00,
2013-07-22 18:58:00,77.8,70.0,30.02,West,262,5.0,7.0,77,0.00,,,0.04,weatherlink.com 1.10,2013-07-22 22:58:00,
2013-07-22 19:13:00,77.4,70.0,30.02,WSW,244,3.0,6.0,78,0.00,,,0.04,weatherlink.com 1.10,2013-07-22 23:13:00,
2013-07-22 19:28:00,76.2,70.0,30.02,West,267,2.0,6.0,81,0.00,,,0.04,weatherlink.com 1.10,2013-07-22 23:28:00,
2013-07-22 19:43:00,75.6,70.0,30.02,NW,320,1.0,5.0,83,0.00,,,0.04,weatherlink.com 1.10,2013-07-22 23:43:00,
2013-07-22 19:58:00,74.5,71.0,30.02,WNW,297,3.0,5.0,88,0.02,,,0.06,weatherlink.com 1.10,2013-07-22 23:58:00,
2013-07-22 20:13:00,73.7,71.0,30.02,West,277,0.0,3.0,91,0.02,,,0.06,weatherlink.com 1.10,2013-07-23 00:13:00,
2013-07-22 20:28:00,73.3,70.0,30.02,NNW,347,2.0,4.0,90,0.02,,,0.06,weatherlink.com 1.10,2013-07-23 00:28:00,
2013-07-22 20:43:00,73.2,70.0,30.02,WNW,284,0.0,7.0,90,0.02,,,0.06,weatherlink.com 1.10,2013-07-23 00:43:00,
2013-07-22 20:58:00,73.0,70.0,30.02,West,280,0.0,3.0,90,0.00,,,0.06,weatherlink.com 1.10,2013-07-23 00:58:00,
2013-07-22 21:13:00,72.8,70.0,30.02,South,172,3.0,6.0,89,0.00,,,0.06,weatherlink.com 1.10,2013-07-23 01:13:00,
2013-07-22 21:28:00,72.3,69.0,30.03,West,278,0.0,5.0,90,0.00,,,0.06,weatherlink.com 1.10,2013-07-23 01:28:00,
2013-07-22 21:43:00,70.1,68.0,30.04,West,266,0.0,7.0,93,0.33,,,0.39,weatherlink.com 1.10,2013-07-23 01:43:00,
2013-07-22 21:58:00,69.8,69.0,30.05,West,274,0.0,3.0,96,0.34,,,0.40,weatherlink.com 1.10,2013-07-23 01:58:00,
2013-07-22 22:13:00,69.6,69.0,30.05,West,276,0.0,1.0,97,0.34,,,0.40,weatherlink.com 1.10,2013-07-23 02:13:00,
2013-07-22 22:28:00,69.6,69.0,30.05,West,271,0.0,1.0,97,0.34,,,0.40,weatherlink.com 1.10,2013-07-23 02:28:00,
2013-07-22 22:43:00,69.4,69.0,30.05,West,260,0.0,1.0,97,0.01,,,0.40,weatherlink.com 1.10,2013-07-23 02:43:00,
2013-07-22 22:58:00,69.0,68.0,30.05,West,260,0.0,0.0,97,0.00,,,0.40,weatherlink.com 1.10,2013-07-23 02:58:00,
2013-07-22 23:13:00,68.6,68.0,30.06,West,259,0.0,0.0,97,0.00,,,0.40,weatherlink.com 1.10,2013-07-23 03:13:00,
2013-07-22 23:29:00,68.1,67.0,30.05,West,259,0.0,0.0,97,0.00,,,0.40,weatherlink.com 1.10,2013-07-23 03:29:00,
2013-07-22 23:44:00,67.9,67.0,30.06,West,264,0.0,1.0,98,0.00,,,0.40,weatherlink.com 1.10,2013-07-23 03:44:00,
2013-07-22 23:59:00,67.6,67.0,30.06,West,264,0.0,0.0,98,0.00,,,0.40,weatherlink.com 1.10,2013-07-23 03:59:00,